Dumas, TX

5:31 AM CST on February 22, 2017 (GMT -0600)
Moore County

Weather History for KDUX - November, 2012

Change the Weather History Date:

Saturday, November 10, 2012

  Actual Average (KDHT) Record (KDHT)
Temperature  
Mean Temperature 60 °F -  
Max Temperature 75 °F 57 °F 84 °F (2014)
Min Temperature 42 °F 31 °F 6 °F (1950)
Degree Days  
Heating Degree Days 6    
Growing Degree Days 10 (Base 50)    
Moisture  
Dew Point 38 °F    
Average Humidity 47    
Maximum Humidity 88    
Minimum Humidity 21    
Precipitation  
Precipitation 0.00 in - - ()
Sea Level Pressure  
Sea Level Pressure 29.71 in    
Wind  
Wind Speed 22 mph (SW)    
Max Wind Speed 45 mph    
Max Gust Speed 60 mph    
Visibility 9 miles    
Events      
Averages and records for this station are not official NWS values.
T = Trace of Precipitation, MM = Missing Value Source: NWS Daily Summary

Daily Weather History Graph

Daily Weather History Graph

Search for Another Location

Airport or City:

Trip Planner

Search our weather history database for the weather conditions in past years. The results will help you decide how hot, cold, wet, or windy it might be!

Date:

Astronomy

Nov. 10, 2012 Rise Set
Actual Time 7:19 AM CST 5:43 PM CST
Civil Twilight 6:52 AM CST 6:10 PM CST
Nautical Twilight 6:22 AM CST 6:41 PM CST
Astronomical Twilight 5:51 AM CST 7:11 PM CST
Moon 3:33 AM CST (11/10) 3:26 PM CST (11/10)
Length of Visible Light 11h 18m
Length of Day
10h 24m
Waning Crescent, 14% of the Moon is Illuminated
Nov 10
Waning Crescent
Nov 13
New
Nov 20
First Quarter
Nov 28
Full
Dec 6
Last Quarter

Hourly Weather History & Observations

Time (CST) Temp. Windchill Dew Point Humidity Pressure Visibility Wind Dir Wind Speed Gust Speed Precip Events Conditions
12:15 AM 59.0 °F - 35.6 °F 42% 29.80 in 10.0 mi SW 16.1 mph - N/A   Clear
12:35 AM 59.0 °F - 35.6 °F 42% 29.82 in 10.0 mi SSW 16.1 mph - N/A   Clear
12:55 AM 57.2 °F - 37.4 °F 48% 29.82 in 10.0 mi SSW 19.6 mph - N/A   Clear
1:15 AM 59.0 °F - 41.0 °F 51% 29.82 in 10.0 mi SSW 19.6 mph - N/A   Clear
1:35 AM 57.2 °F - 39.2 °F 51% 29.81 in 10.0 mi SSW 15.0 mph - N/A   Clear
1:55 AM 57.2 °F - 41.0 °F 55% 29.80 in 10.0 mi SSW 16.1 mph - N/A   Clear
2:15 AM 57.2 °F - 41.0 °F 55% 29.80 in 10.0 mi SSW 18.4 mph - N/A   Clear
2:35 AM 55.4 °F - 41.0 °F 58% 29.79 in 10.0 mi SSW 13.8 mph - N/A   Clear
2:55 AM 55.4 °F - 42.8 °F 63% 29.78 in 10.0 mi South 16.1 mph - N/A   Clear
3:15 AM 57.2 °F - 42.8 °F 59% 29.78 in 10.0 mi South 21.9 mph 25.3 mph N/A   Clear
3:35 AM 59.0 °F - 44.6 °F 59% 29.78 in 10.0 mi South 23.0 mph 28.8 mph N/A   Clear
3:55 AM 57.2 °F - 46.4 °F 67% 29.76 in 10.0 mi South 20.7 mph 32.2 mph N/A   Clear
4:15 AM 55.4 °F - 46.4 °F 72% 29.76 in 10.0 mi South 20.7 mph - N/A   Clear
4:35 AM 57.2 °F - 46.4 °F 67% 29.75 in 10.0 mi South 20.7 mph 27.6 mph N/A   Clear
4:55 AM 57.2 °F - 50.0 °F 77% 29.74 in 10.0 mi South 23.0 mph 32.2 mph N/A   Clear
5:15 AM 55.4 °F - 50.0 °F 82% 29.74 in 10.0 mi South 18.4 mph 25.3 mph N/A   Clear
5:55 AM 55.4 °F - 50.0 °F 82% 29.73 in 10.0 mi South 20.7 mph 26.5 mph N/A   Clear
6:15 AM 55.4 °F - 50.0 °F 82% 29.73 in 10.0 mi SSW 20.7 mph 26.5 mph N/A   Clear
6:35 AM 55.4 °F - 50.0 °F 82% 29.73 in 10.0 mi SSW 21.9 mph - N/A   Clear
6:55 AM 53.6 °F - 50.0 °F 88% 29.74 in 10.0 mi SSW 21.9 mph - N/A   Clear
7:15 AM 53.6 °F - 50.0 °F 88% 29.73 in 10.0 mi SSW 19.6 mph - N/A   Clear
7:35 AM 53.6 °F - 50.0 °F 88% 29.74 in 10.0 mi SSW 19.6 mph - N/A   Clear
7:55 AM 53.6 °F - 50.0 °F 88% 29.75 in 10.0 mi SSW 17.3 mph - N/A   Clear
8:15 AM 55.4 °F - 50.0 °F 82% 29.74 in 10.0 mi SSW 20.7 mph 25.3 mph N/A   Clear
8:35 AM 55.4 °F - 50.0 °F 82% 29.74 in 10.0 mi South 21.9 mph 26.5 mph N/A   Clear
8:55 AM 59.0 °F - 50.0 °F 72% 29.74 in 10.0 mi South 24.2 mph 28.8 mph N/A   Clear
9:15 AM 60.8 °F - 48.2 °F 63% 29.73 in 10.0 mi South 21.9 mph 27.6 mph N/A   Clear
9:35 AM 62.6 °F - 48.2 °F 59% 29.73 in 10.0 mi South 26.5 mph 34.5 mph N/A   Clear
9:55 AM 62.6 °F - 46.4 °F 55% 29.72 in 10.0 mi South 27.6 mph 34.5 mph N/A   Clear
10:15 AM 66.2 °F - 44.6 °F 46% 29.71 in 10.0 mi South 25.3 mph 35.7 mph N/A   Clear
10:35 AM 68.0 °F - 44.6 °F 43% 29.71 in 10.0 mi South 27.6 mph 31.1 mph N/A   Clear
10:55 AM 69.8 °F - 44.6 °F 40% 29.70 in 10.0 mi SSW 31.1 mph 35.7 mph N/A   Clear
11:15 AM 69.8 °F - 42.8 °F 38% 29.69 in 10.0 mi South 29.9 mph 39.1 mph N/A   Clear
11:35 AM 71.6 °F - 42.8 °F 35% 29.69 in 10.0 mi SSW 29.9 mph 41.4 mph N/A   Scattered Clouds
11:55 AM 71.6 °F - 41.0 °F 33% 29.68 in 7.0 mi SSW 34.5 mph 46.0 mph N/A   Scattered Clouds
12:15 PM 73.4 °F - 42.8 °F 33% 29.67 in 10.0 mi SSW 29.9 mph 43.7 mph N/A   Scattered Clouds
12:35 PM 73.4 °F - 39.2 °F 29% 29.66 in 7.0 mi SSW 40.3 mph 48.3 mph N/A   Scattered Clouds
12:55 PM 73.4 °F - 35.6 °F 25% 29.64 in 3.0 mi SSW 44.9 mph 55.2 mph N/A   Haze
1:15 PM 75.2 °F - 32.0 °F 21% 29.62 in 3.0 mi SSW 43.7 mph 55.2 mph N/A   Haze
1:35 PM 75.2 °F - 32.0 °F 21% 29.61 in 3.0 mi SSW 43.7 mph 57.5 mph N/A   Haze
1:55 PM 75.2 °F - 33.8 °F 22% 29.60 in 4.0 mi SW 44.9 mph 52.9 mph N/A   Haze
2:15 PM 71.6 °F - 33.8 °F 25% 29.61 in 5.0 mi WSW 34.5 mph 47.2 mph N/A   Haze
2:35 PM 73.4 °F - 35.6 °F 25% 29.60 in 7.0 mi SSW 41.4 mph 49.5 mph N/A   Overcast
2:55 PM 73.4 °F - 33.8 °F 23% 29.60 in 7.0 mi SSW 41.4 mph 48.3 mph N/A   Overcast
3:15 PM 71.6 °F - 32.0 °F 23% 29.61 in 7.0 mi SW 43.7 mph 59.8 mph N/A   Overcast
3:35 PM 64.4 °F - 39.2 °F 40% 29.60 in 7.0 mi SW 29.9 mph 46.0 mph N/A   Mostly Cloudy
3:55 PM 69.8 °F - 35.6 °F 28% 29.60 in 10.0 mi SW 24.2 mph 29.9 mph N/A   Scattered Clouds
4:15 PM 71.6 °F - 32.0 °F 23% 29.60 in 7.0 mi SW 27.6 mph 38.0 mph N/A   Mostly Cloudy
4:35 PM 69.8 °F - 32.0 °F 25% 29.61 in 10.0 mi SW 32.2 mph 38.0 mph N/A   Scattered Clouds
4:55 PM 68.0 °F - 32.0 °F 26% 29.62 in 10.0 mi WSW 28.8 mph 40.3 mph N/A   Scattered Clouds
5:15 PM 66.2 °F - 32.0 °F 28% 29.64 in 7.0 mi WSW 28.8 mph 40.3 mph N/A   Mostly Cloudy
5:35 PM 64.4 °F - 32.0 °F 30% 29.65 in 10.0 mi WSW 29.9 mph 41.4 mph N/A   Scattered Clouds
5:55 PM 64.4 °F - 33.8 °F 32% 29.65 in 10.0 mi WSW 26.5 mph 33.4 mph N/A   Clear
6:15 PM 62.6 °F - 32.0 °F 32% 29.67 in 10.0 mi WSW 23.0 mph 28.8 mph N/A   Clear
6:35 PM 60.8 °F - 33.8 °F 36% 29.69 in 10.0 mi West 21.9 mph - N/A   Clear
6:55 PM 59.0 °F - 32.0 °F 36% 29.69 in 10.0 mi West 18.4 mph 24.2 mph N/A   Clear
7:15 PM 59.0 °F - 32.0 °F 36% 29.69 in 10.0 mi West 21.9 mph - N/A   Clear
7:35 PM 55.4 °F - 32.0 °F 41% 29.69 in 10.0 mi West 20.7 mph 26.5 mph N/A   Clear
7:55 PM 55.4 °F - 30.2 °F 38% 29.70 in 10.0 mi West 25.3 mph 31.1 mph N/A   Clear
8:15 PM 55.4 °F - 28.4 °F 36% 29.69 in 10.0 mi West 25.3 mph 31.1 mph N/A   Clear
8:35 PM 53.6 °F - 28.4 °F 38% 29.69 in 10.0 mi West 20.7 mph 28.8 mph N/A   Clear
8:55 PM 53.6 °F - 26.6 °F 35% 29.71 in 10.0 mi West 21.9 mph 29.9 mph N/A   Clear
9:15 PM 51.8 °F - 26.6 °F 38% 29.71 in 10.0 mi West 20.7 mph 28.8 mph N/A   Clear
9:35 PM 51.8 °F - 23.0 °F 33% 29.71 in 10.0 mi West 17.3 mph 26.5 mph N/A   Clear
10:35 PM 48.2 °F - 21.2 °F 34% 29.77 in 10.0 mi West 11.5 mph - N/A   Clear
10:55 PM 46.4 °F 41.5 °F 21.2 °F 37% 29.77 in 10.0 mi West 10.4 mph - N/A   Clear
11:15 PM 44.6 °F 40.7 °F 21.2 °F 39% 29.77 in 10.0 mi WNW 6.9 mph - N/A   Clear
11:35 PM 44.6 °F 43.1 °F 19.4 °F 37% 29.79 in 10.0 mi WSW 3.5 mph - N/A   Clear
11:55 PM 42.8 °F - 19.4 °F 39% 29.81 in 10.0 mi Calm Calm - N/A   Clear